Home > Weather > Harrisburg > Past weeks

Flag for USA Past Weather in Harrisburg, Pennsylvania, USA — Yesterday and Last 2 Weeks

Now
69 °F

Clear.


Feels Like: 69 °F
Forecast: 66 / 85 °F
Wind: No wind

Location: Capital City Airport

Current Time: May 29, 2016 at 5:46:18 AM

Latest Report: May 29, 2016 at 4:56 AM


Visibility: 10 mi

Pressure: 30.12 "Hg

Humidity: 81%

Dew Point: 63 °F

Location of HarrisburgLocation

Past Weather in Harrisburg — Graph

°F

Harrisburg Temperature Yesterday

Maximum temperature yesterday: 91 °F (at 3:56 PM)
Minimum temperature yesterday: 66 °F (at 5:56 AM)
Average temperature yesterday: 79 °F

High & Low Weather Summary for the Past Weeks

 TemperatureHumidityPressure
High91 °F (May 28, 3:56 PM)96% (May 22, 6:56 AM)30.30 "Hg (May 22, 6:56 AM)
Low41 °F (May 16, 12:56 AM)22% (May 20, 2:56 PM)29.65 "Hg (May 14, 5:56 PM)
Average64 °F60%30.04 "Hg
* Reported May 14 3:56 AM — May 29 3:56 AM, Harrisburg, Weather by CustomWeather, © 2016

Note: Actual official high and low records may vary slightly from our data, if they occured in-between our weather recording intervals... More about our weather records

Advertising

Harrisburg Weather History for the Previous 24 Hours

Scroll right to see more
 ConditionsComfort  
Time TempWeatherWind HumidityBarometerVisibility
3:56 AM
Sun, May 29
69 °FClear.No wind84%30.11 "Hg9 mi
2:56 AM72 °FClear.No wind76%30.11 "Hg10 mi
1:56 AM73 °FClear.3 mph74%30.12 "Hg10 mi
12:56 AM75 °FClear.7 mph66%30.12 "Hg10 mi
11:56 PM
Sat, May 28
77 °FClear.3 mph62%30.12 "Hg10 mi
10:56 PM79 °FClear.7 mph60%30.11 "Hg10 mi
9:56 PM81 °FClear.9 mph58%30.11 "Hg10 mi
8:56 PM83 °FSunny.9 mph59%30.09 "Hg10 mi
7:56 PM86 °FSunny.8 mph49%30.08 "Hg10 mi
6:56 PM88 °FPassing clouds.9 mph46%30.06 "Hg10 mi
5:56 PM90 °FPassing clouds.9 mph43%30.06 "Hg10 mi
4:56 PM90 °FPassing clouds.12 mph47%30.06 "Hg10 mi
3:56 PM91 °FPassing clouds.10 mph45%30.08 "Hg10 mi
2:56 PM90 °FSunny.8 mph45%30.09 "Hg10 mi
1:56 PM88 °FPassing clouds.7 mph50%30.11 "Hg10 mi
12:56 PM88 °FSunny.5 mph52%30.12 "Hg10 mi
11:56 AM85 °FSunny.7 mph61%30.13 "Hg10 mi
10:56 AM82 °FSunny.3 mph65%30.14 "Hg10 mi
9:56 AM80 °FSunny.No wind69%30.14 "Hg9 mi
8:56 AM75 °FPassing clouds.No wind76%30.14 "Hg8 mi
7:56 AM72 °FSunny.No wind84%30.13 "Hg8 mi
6:56 AM70 °FFog.No wind87%30.12 "Hg5 mi
5:56 AM66 °FClear.3 mph90%30.11 "Hg7 mi
Weather by CustomWeather, © 2016

See weather overviewHow to use our weather pages